CDT,Max TemperatureF,Mean TemperatureF,Min TemperatureF,Max Dew PointF,MeanDew PointF,Min DewpointF,Max Humidity, Mean Humidity, Min Humidity, Max Sea Level PressureIn, Mean Sea Level PressureIn, Min Sea Level PressureIn, Max VisibilityMiles, Mean VisibilityMiles, Min VisibilityMiles, Max Wind SpeedMPH, Mean Wind SpeedMPH, Max Gust SpeedMPH,PrecipitationIn, CloudCover, Events, WindDirDegrees
2013-6-1,66,56,47,57,49,43,98,82,68,30.00,29.73,29.55,10,10,5,17,5,25,0.00,5,Rain,347
2013-6-2,65,54,44,46,39,35,87,59,34,30.11,30.05,30.00,10,10,10,10,6,21,0.00,3,,332
2013-6-3,64,52,39,45,41,38,97,63,38,30.07,30.03,29.96,10,10,10,14,3,16,0.00,3,Rain,96
2013-6-4,59,54,50,55,51,44,96,85,55,30.09,30.01,29.96,10,7,2,15,10,23,1.38,8,Rain-Thunderstorm,105
2013-6-5,63,58,52,56,53,50,99,88,67,30.02,29.99,29.96,10,7,0,13,8,,0.05,8,Fog-Rain-Thunderstorm,62
2013-6-6,57,52,48,50,49,48,97,88,75,30.06,30.03,30.00,10,10,4,10,6,,0.00,8,,23
2013-6-7,62,56,51,50,49,47,94,77,57,30.07,30.01,29.93,10,10,7,7,1,,0.00,7,,112
2013-6-8,66,57,48,55,51,48,96,73,54,29.93,29.90,29.87,10,10,7,13,5,17,0.00,3,Rain,116
2013-6-9,61,58,55,56,55,51,97,91,67,29.88,29.82,29.78,10,6,2,17,11,25,0.71,8,Rain,74
2013-6-10,72,64,56,60,57,54,99,81,56,29.89,29.85,29.81,10,7,0,7,2,,0.00,5,,152
2013-6-11,73,64,55,63,60,55,99,85,60,29.95,29.88,29.83,10,7,2,8,2,,0.01,2,Rain-Thunderstorm,9
2013-6-12,70,64,58,59,55,52,94,73,59,30.01,29.89,29.81,10,10,7,12,5,17,0.22,5,Rain-Thunderstorm,1
2013-6-13,76,65,54,55,51,48,83,60,38,30.13,30.08,30.02,10,10,10,10,5,9,0.00,1,,27
2013-6-14,77,68,58,61,56,50,87,64,50,30.09,29.97,29.86,10,10,10,20,8,26,0.00,4,Rain,126
2013-6-15,80,70,60,64,54,39,96,61,24,29.93,29.89,29.86,10,10,5,12,5,16,0.00,2,,309
2013-6-16,86,69,52,61,49,38,85,57,18,29.95,29.91,29.86,10,10,7,22,7,47,0.09,1,Rain-Thunderstorm,259
2013-6-17,78,66,54,56,54,50,94,63,37,30.05,29.96,29.90,10,10,10,15,6,23,0.00,3,,304
2013-6-18,74,62,50,57,52,44,92,68,43,30.11,30.07,30.02,10,10,7,12,6,16,0.11,2,Rain-Thunderstorm,84
2013-6-19,83,72,61,60,57,53,84,59,36,30.05,29.99,29.92,10,10,7,10,7,16,0.00,3,,132
2013-6-20,87,78,70,66,62,59,78,59,41,30.00,29.92,29.81,10,9,5,17,8,28,0.00,3,Rain-Thunderstorm,149
2013-6-21,80,70,59,68,62,57,98,78,54,30.08,29.90,29.71,10,8,1,43,11,64,2.16,3,Rain-Thunderstorm,90
2013-6-22,77,70,64,67,64,59,93,81,63,29.99,29.92,29.80,10,10,7,17,6,23,0.01,3,Rain-Thunderstorm,110
2013-6-23,79,70,63,68,63,58,99,79,51,29.89,29.78,29.53,10,9,1,20,10,32,2.15,4,Rain-Thunderstorm,231
2013-6-24,79,69,59,70,64,57,97,80,61,29.91,29.86,29.80,10,10,10,9,3,,0.00,1,,138
2013-6-25,84,74,65,72,67,62,92,77,58,29.82,29.77,29.70,10,10,7,13,7,17,0.00,0,,129
2013-6-26,84,76,69,72,66,59,96,71,44,29.84,29.75,29.67,10,9,7,21,5,29,0.00,1,Thunderstorm,274
2013-6-27,84,74,64,66,57,48,95,58,30,29.89,29.85,29.83,10,10,10,23,7,30,0.00,1,,286
2013-6-28,77,68,60,60,57,54,85,65,47,29.88,29.86,29.83,10,10,10,23,11,32,0.00,3,Rain,304
2013-6-29,77,68,58,61,55,46,93,66,34,30.04,29.92,29.83,10,10,10,17,8,24,0.00,3,Rain-Thunderstorm,359
2013-6-30,79,66,52,57,51,46,96,63,31,30.17,30.12,30.04,10,8,4,10,2,16,0.00,1,,12